DW8452 Acharnes GR current weather conditions

sailwx.info

Wind from 257 at 0 knots gusting 3

Air temperature 10.0° C
Dewpoint 1.6° C

Last reported at 2018-Jan-19 17:10 UTC.
Time now 2018-Jan-19 17:44 UTC

Location: N 38°06' E 023°44'.
View on Google Maps.

See reports from other nearby stations

  
Tides and Currents Weather Stations Pressure Air Temp Water Temp Dewpoint Dewpoint Depression Visibility Wind Speed Wind Dir Waves Ship Positions
date/time (UTC)wind fromknots sea level pressurealtimeterstation pressurevisibilityair tempwater tempwave heightnotes
2018-Jan-19 17:10 257 0 gusting 3 10.0
2018-Jan-19 17:05 241 0 gusting 3 10.0
2018-Jan-19 17:00 238 1 gusting 3 10.0
2018-Jan-19 16:55 221 2 gusting 6 10.0
2018-Jan-19 16:40 250 1 gusting 5 10.0
2018-Jan-19 16:30 261 1 gusting 5 10.0
2018-Jan-19 16:25 240 2 gusting 6 10.6
2018-Jan-19 16:20 237 1 gusting 6 10.6
2018-Jan-19 16:15 243 1 gusting 4 10.6
2018-Jan-19 16:05 196 2 gusting 7 10.6
2018-Jan-19 16:00 195 1 gusting 5 10.6
2018-Jan-19 15:50 209 1 gusting 6 11.1
2018-Jan-19 15:30 212 3 gusting 7 11.7
2018-Jan-19 15:25 203 3 gusting 8 12.2
2018-Jan-19 15:15 201 3 gusting 6 12.8
2018-Jan-19 15:10 212 2 gusting 6 12.8
2018-Jan-19 15:05 217 3 gusting 9 12.8
2018-Jan-19 15:00 215 4 gusting 9 13.3
2018-Jan-19 14:50 219 3 gusting 9 13.3
2018-Jan-19 14:45 214 4 gusting 9 13.3
2018-Jan-19 14:40 224 5 gusting 10 13.3
2018-Jan-19 14:35 196 5 gusting 10 13.9
2018-Jan-19 14:30 184 4 gusting 8 13.9
2018-Jan-19 14:25 208 3 gusting 8 13.9
2018-Jan-19 14:20 218 3 gusting 10 13.9
2018-Jan-19 14:15 215 5 gusting 12 13.9
2018-Jan-19 14:10 222 5 gusting 12 13.9
2018-Jan-19 14:05 216 4 gusting 9 13.9
2018-Jan-19 13:55 216 5 gusting 11 13.9
2018-Jan-19 13:50 221 5 gusting 13 13.9
2018-Jan-19 13:45 194 5 gusting 13 13.9
2018-Jan-19 13:40 202 6 gusting 14 13.9
2018-Jan-19 13:30 214 4 gusting 12 13.9
2018-Jan-19 13:25 224 6 gusting 14 13.9
2018-Jan-19 13:20 214 6 gusting 14 13.9
2018-Jan-19 13:15 218 6 gusting 14 13.9
2018-Jan-19 13:10 232 5 gusting 13 14.4
2018-Jan-19 13:05 221 4 gusting 13 13.9
2018-Jan-19 13:00 193 6 gusting 13 13.9
2018-Jan-19 12:55 210 6 gusting 13 13.9
2018-Jan-19 12:50 247 5 gusting 14 13.9
2018-Jan-19 12:40 271 6 gusting 14 13.9
2018-Jan-19 12:35 258 5 gusting 14 13.9
2018-Jan-19 12:30 262 6 gusting 19 13.9
2018-Jan-19 12:25 259 8 gusting 19 13.9
2018-Jan-19 12:15 245 8 gusting 15 14.4
2018-Jan-19 12:10 227 7 gusting 16 14.4
2018-Jan-19 12:05 224 7 gusting 19 13.9
2018-Jan-19 12:00 225 6 gusting 19 14.4
2018-Jan-19 11:55 207 6 gusting 14 14.4
2018-Jan-19 11:50 203 7 gusting 14 13.9
2018-Jan-19 11:45 217 7 gusting 18 13.9
2018-Jan-19 11:40 205 8 gusting 18 14.4
2018-Jan-19 11:35 203 8 gusting 18 14.4
2018-Jan-19 11:30 214 6 gusting 18 13.9
2018-Jan-19 11:25 220 5 gusting 13 14.4
2018-Jan-19 11:20 234 4 gusting 13 14.4
2018-Jan-19 11:10 250 5 gusting 13 14.4
2018-Jan-19 11:05 215 6 gusting 13 13.9
2018-Jan-19 11:00 210 5 gusting 13 14.4
2018-Jan-19 10:50 223 6 gusting 13 13.9
2018-Jan-19 10:40 218 6 gusting 13 14.4
2018-Jan-19 10:35 197 6 gusting 13 13.9
2018-Jan-19 10:25 201 4 gusting 9 13.9
2018-Jan-19 10:20 205 5 gusting 12 13.3
2018-Jan-19 10:15 201 5 gusting 12 13.3
2018-Jan-19 10:10 226 5 gusting 12 13.3
2018-Jan-19 10:05 221 4 gusting 12 13.3
2018-Jan-19 10:00 208 4 gusting 12 13.3
2018-Jan-19 09:55 209 3 gusting 9 13.3
2018-Jan-19 09:50 197 3 gusting 9 13.3
2018-Jan-19 09:45 189 3 gusting 9 12.8
2018-Jan-19 09:40 182 3 gusting 8 12.8
2018-Jan-19 09:35 190 3 gusting 9 12.8
2018-Jan-19 09:30 210 3 gusting 9 12.8
2018-Jan-19 09:25 214 3 gusting 9 12.2
2018-Jan-19 09:20 211 4 gusting 11 12.2
2018-Jan-19 09:15 217 4 gusting 13 12.2
2018-Jan-19 09:05 231 3 gusting 11 12.2
2018-Jan-19 08:50 195 2 gusting 6 11.7
2018-Jan-19 08:45 185 3 gusting 8 11.7
2018-Jan-19 08:40 181 3 gusting 8 11.1
2018-Jan-19 08:35 188 4 gusting 7 11.1
2018-Jan-19 08:25 175 2 gusting 7 11.1
2018-Jan-19 08:20 196 2 gusting 7 10.6
2018-Jan-19 08:10 331 10.6
2018-Jan-19 08:05 259 10.6
2018-Jan-19 08:00 216 10.6
2018-Jan-19 07:55 10.0
2018-Jan-19 07:50 169 9.4
2018-Jan-19 07:45 169 9.4
2018-Jan-19 07:40 090 8.3
2018-Jan-19 07:35 090 8.3
2018-Jan-19 07:30 8.3
2018-Jan-19 07:25 7.8
2018-Jan-19 07:20 7.8
2018-Jan-19 07:15 7.2
2018-Jan-19 07:10 057 6.7
2018-Jan-19 07:05 346 6.1
2018-Jan-19 07:00 326 6.7
2018-Jan-19 06:55 045 6.1
2018-Jan-19 06:45 6.7
2018-Jan-19 06:35 026 5.6
2018-Jan-19 06:20 331 4.4
2018-Jan-19 06:10 330 3.3
2018-Jan-19 06:05 002 3.3
2018-Jan-19 06:00 353 2.8
2018-Jan-19 05:45 329 2.2
2018-Jan-19 05:40 332 2.2
2018-Jan-19 05:35 322 2.2
2018-Jan-19 05:30 348 2.2
2018-Jan-19 05:25 045 2.2
2018-Jan-19 05:20 045 2.2
2018-Jan-19 05:15 011 2.2
2018-Jan-19 05:10 006 2.2
2018-Jan-19 05:05 033 2.2
2018-Jan-19 04:55 040 2.2
2018-Jan-19 04:50 027 2.2
2018-Jan-19 04:45 358 2.2
2018-Jan-19 04:40 028 2.2
2018-Jan-19 04:35 045 2.2
2018-Jan-19 04:30 2.2
2018-Jan-19 04:25 2.2
2018-Jan-19 04:20 318 2.2
2018-Jan-19 04:15 318 2.2
2018-Jan-19 04:10 270 2.2
2018-Jan-19 03:55 2.8
2018-Jan-19 03:50 2.8
2018-Jan-19 03:45 2.8
2018-Jan-19 03:35 3.3
2018-Jan-19 03:30 345 3.3
2018-Jan-19 03:25 336 3.3
2018-Jan-19 03:20 323 3.3
2018-Jan-19 03:15 3.9
2018-Jan-19 03:10 3.9
2018-Jan-19 03:05 3.9
2018-Jan-19 03:00 3.9
2018-Jan-19 02:55 090 3.9
2018-Jan-19 02:50 080 3.9
2018-Jan-19 02:45 079 3.9
2018-Jan-19 02:40 090 3.3
2018-Jan-19 02:35 3.3
2018-Jan-19 02:30 3.9
2018-Jan-19 02:25 3.9
2018-Jan-19 02:20 3.9
2018-Jan-19 02:15 3.9
2018-Jan-19 02:10 3.9
2018-Jan-19 02:05 3.9
2018-Jan-19 01:55 4.4
2018-Jan-19 01:50 045 4.4
2018-Jan-19 01:45 045 4.4
2018-Jan-19 01:40 038 4.4
2018-Jan-19 01:35 030 4.4
2018-Jan-19 01:20 5.0
2018-Jan-19 01:15 045 5.0
2018-Jan-19 01:10 045 5.6
2018-Jan-19 01:05 269 5.6
2018-Jan-19 01:00 265 5.6
2018-Jan-19 00:55 303 5.6
2018-Jan-19 00:50 297 5.6
2018-Jan-19 00:45 282 5.6
2018-Jan-19 00:40 292 5.0
2018-Jan-19 00:35 293 5.0
2018-Jan-19 00:30 278 5.0
2018-Jan-19 00:25 275 5.0
2018-Jan-19 00:20 336 5.0
2018-Jan-19 00:15 293 5.0
2018-Jan-19 00:05 295 5.0
2018-Jan-19 00:00 344 5.0
2018-Jan-18 23:55 036 5.0
2018-Jan-18 23:50 283 5.0
2018-Jan-18 23:45 277 5.6
2018-Jan-18 23:40 309 5.6
2018-Jan-18 23:35 327 5.6
2018-Jan-18 23:30 116 5.6
2018-Jan-18 23:25 226 5.6
2018-Jan-18 23:20 242 5.6
2018-Jan-18 23:15 247 5.6
2018-Jan-18 23:10 136 5.0
2018-Jan-18 23:05 314 5.6
2018-Jan-18 23:00 290 5.0
2018-Jan-18 22:55 291 5.0
2018-Jan-18 22:50 276 5.0
2018-Jan-18 22:45 264 5.0
2018-Jan-18 22:40 279 5.0
2018-Jan-18 22:35 321 5.0
2018-Jan-18 22:30 341 5.0
2018-Jan-18 22:25 274 5.0
2018-Jan-18 22:20 268 5.0
2018-Jan-18 22:15 270 5.0
2018-Jan-18 22:10 234 5.0
2018-Jan-18 22:00 270 5.0
2018-Jan-18 21:55 259 5.0
2018-Jan-18 21:50 249 5.0
2018-Jan-18 21:45 247 5.0
2018-Jan-18 21:40 252 5.6
2018-Jan-18 21:35 245 5.6
2018-Jan-18 21:30 228 5.6
2018-Jan-18 21:25 227 5.6
2018-Jan-18 21:15 225 6.1
2018-Jan-18 21:10 255 5.6
2018-Jan-18 21:00 298 6.1
2018-Jan-18 20:55 261 6.1
2018-Jan-18 20:50 235 6.1
2018-Jan-18 20:45 211 6.1
2018-Jan-18 20:40 197 6.1
2018-Jan-18 20:35 204 6.1
2018-Jan-18 20:30 219 6.1
2018-Jan-18 20:25 166 6.1
2018-Jan-18 20:20 215 6.1
2018-Jan-18 20:10 220 6.7
2018-Jan-18 20:05 079 6.1
2018-Jan-18 20:00 272 6.7
2018-Jan-18 19:55 244 6.7
2018-Jan-18 19:40 149 7.2
2018-Jan-18 19:30 319 7.2
2018-Jan-18 19:25 324 7.2
2018-Jan-18 19:20 137 6.7
2018-Jan-18 19:15 132 7.2
2018-Jan-18 19:10 215 7.2
2018-Jan-18 19:05 246 7.2
2018-Jan-18 18:55 312 7.2
2018-Jan-18 18:50 306 7.2
2018-Jan-18 18:35 211 6.7
2018-Jan-18 18:30 234 6.7
2018-Jan-18 18:20 315 6.7
2018-Jan-18 18:15 307 7.2
2018-Jan-18 18:10 303 7.2
2018-Jan-18 18:05 216 7.2
2018-Jan-18 18:00 309 7.2
2018-Jan-18 17:55 313 7.2
2018-Jan-18 17:50 304 7.2
2018-Jan-18 17:45 351 7.2
2018-Jan-18 17:40 050 7.2
2018-Jan-18 17:30 315 7.2
2018-Jan-18 17:25 288 7.2
2018-Jan-18 17:20 232 7.2
2018-Jan-18 17:15 245 7.2
2018-Jan-18 17:10 304 7.2
2018-Jan-18 17:05 309 6.7
2018-Jan-18 17:00 315 6.7
2018-Jan-18 16:55 287 6.7
2018-Jan-18 16:50 283 7.2
2018-Jan-18 16:40 247 7.2
2018-Jan-18 16:35 246 7.2
2018-Jan-18 16:30 223 7.2
2018-Jan-18 16:25 230 7.2
2018-Jan-18 16:15 290 7.8
2018-Jan-18 16:10 280 7.8
2018-Jan-18 16:05 298 7.8
2018-Jan-18 16:00 280 7.8
2018-Jan-18 15:55 290 8.3
2018-Jan-18 15:45 278 8.3
2018-Jan-18 15:40 202 8.9
2018-Jan-18 15:35 240 8.9
2018-Jan-18 15:30 332 8.9
2018-Jan-18 15:25 292 8.9
2018-Jan-18 15:20 286 8.9
2018-Jan-18 15:15 324 8.9
2018-Jan-18 15:10 018 9.4
2018-Jan-18 15:05 007 9.4
2018-Jan-18 15:00 315 9.4
2018-Jan-18 14:55 335 9.4
2018-Jan-18 14:50 345 9.4
2018-Jan-18 14:45 130 9.4
2018-Jan-18 14:40 079 9.4
2018-Jan-18 14:35 347 9.4
2018-Jan-18 14:30 290 9.4
2018-Jan-18 14:25 279 9.4
2018-Jan-18 14:20 303 9.4
2018-Jan-18 14:15 327 9.4
2018-Jan-18 14:10 331 9.4
2018-Jan-18 14:05 310 9.4
2018-Jan-18 14:00 311 9.4
2018-Jan-18 13:55 316 9.4
2018-Jan-18 13:50 327 9.4
2018-Jan-18 13:45 334 9.4
2018-Jan-18 13:40 006 8.9
2018-Jan-18 13:35 003 9.4
2018-Jan-18 13:30 301 9.4
2018-Jan-18 13:25 272 9.4
2018-Jan-18 13:15 323 9.4
2018-Jan-18 13:10 339 9.4
2018-Jan-18 13:05 324 9.4
2018-Jan-18 13:00 305 9.4
2018-Jan-18 12:55 322 9.4
2018-Jan-18 12:50 321 9.4
2018-Jan-18 12:45 315 9.4
2018-Jan-18 12:40 331 9.4
2018-Jan-18 12:35 328 9.4
2018-Jan-18 12:30 320 9.4
2018-Jan-18 12:25 313 8.9
2018-Jan-18 12:20 327 9.4
2018-Jan-18 12:15 358 8.9
2018-Jan-18 12:10 344 9.4
2018-Jan-18 12:05 291 9.4
2018-Jan-18 11:50 312 8.9
2018-Jan-18 11:45 300 8.9
2018-Jan-18 11:40 319 8.9
2018-Jan-18 11:29 306 8.9
2018-Jan-18 11:24 318 8.9
2018-Jan-18 11:19 318 8.9
2018-Jan-18 11:14 312 8.9
2018-Jan-18 11:09 291 8.9
2018-Jan-18 11:04 289 8.9
2018-Jan-18 10:59 339 8.9
2018-Jan-18 10:54 015 8.3
2018-Jan-18 10:49 357 8.9
2018-Jan-18 10:39 347 8.9
2018-Jan-18 10:34 347 8.9
2018-Jan-18 10:29 329 9.4
2018-Jan-18 10:24 327 9.4
2018-Jan-18 10:19 323 8.9
2018-Jan-18 10:04 319 9.4
2018-Jan-18 09:54 259 9.4
2018-Jan-18 09:49 318 8.9
2018-Jan-18 09:44 336 8.9
2018-Jan-18 09:39 319 8.9
2018-Jan-18 09:34 316 8.3
2018-Jan-18 09:29 322 8.9
2018-Jan-18 09:24 297 8.9
2018-Jan-18 09:14 347 8.3
2018-Jan-18 09:09 359 8.3
2018-Jan-18 09:04 354 7.8
2018-Jan-18 08:59 322 8.3
2018-Jan-18 08:54 314 7.8
2018-Jan-18 08:49 331 7.2
2018-Jan-18 08:39 353 6.7
2018-Jan-18 08:34 358 6.1
2018-Jan-18 08:29 015 6.7
2018-Jan-18 08:24 219 7.2
2018-Jan-18 08:19 317 7.8
2018-Jan-18 08:14 301 8.3
2018-Jan-18 08:09 230 8.3
2018-Jan-18 08:04 238 7.8
2018-Jan-18 07:59 327 7.8
2018-Jan-18 07:54 329 7.8
2018-Jan-18 07:44 342 0 gusting 5 7.8
2018-Jan-18 07:39 082 0 gusting 3 7.8
2018-Jan-18 07:34 230 0 gusting 3 7.8
2018-Jan-18 07:29 011 0 gusting 4 7.8
2018-Jan-18 07:24 091 7.2
2018-Jan-18 07:09 276 0 gusting 5 6.7
2018-Jan-18 07:04 321 0 gusting 4 6.7
2018-Jan-18 06:59 311 6.7
2018-Jan-18 06:54 308 6.1
2018-Jan-18 06:44 306 6.1
2018-Jan-18 06:39 312 5.6
2018-Jan-18 06:34 343 5.6
2018-Jan-18 06:29 011 5.6
2018-Jan-18 06:24 302 5.6
2018-Jan-18 06:19 159 5.6
2018-Jan-18 06:14 274 5.6
2018-Jan-18 06:04 249 6.1
2018-Jan-18 05:59 326 6.7
2018-Jan-18 05:49 339 7.8
2018-Jan-18 05:39 304 8.3
2018-Jan-18 05:34 303 8.3
2018-Jan-18 05:29 313 8.9
2018-Jan-18 05:24 300 9.4
2018-Jan-18 05:19 294 9.4
2018-Jan-18 05:14 302 9.4
2018-Jan-18 04:59 298 10.0
2018-Jan-18 04:54 326 10.0
2018-Jan-18 04:49 300 10.0
2018-Jan-18 04:44 260 10.0
2018-Jan-18 04:39 274 10.0
2018-Jan-18 04:34 307 10.6
2018-Jan-18 04:29 010 10.6
2018-Jan-18 04:19 312 10.6
2018-Jan-18 04:14 325 10.6
2018-Jan-18 04:09 314 10.6
2018-Jan-18 04:04 278 10.6
2018-Jan-18 03:59 230 10.6
2018-Jan-18 03:54 236 10.6
2018-Jan-18 03:49 286 10.6
2018-Jan-18 03:44 305 10.6
2018-Jan-18 03:39 300 10.6
2018-Jan-18 03:34 303 10.6
2018-Jan-18 03:29 351 10.6
2018-Jan-18 03:24 259 10.6
2018-Jan-18 03:14 250 10.6
2018-Jan-18 03:09 277 10.6
2018-Jan-18 03:04 302 10.6
2018-Jan-18 02:59 274 10.6
2018-Jan-18 02:54 268 10.6
2018-Jan-18 02:49 272 10.6
2018-Jan-18 02:44 241 0 gusting 3 10.6
2018-Jan-18 02:39 050 0 gusting 3 10.6
2018-Jan-18 02:29 254 0 gusting 3 10.6
2018-Jan-18 02:24 315 0 gusting 3 10.6
2018-Jan-18 02:19 308 0 gusting 3 11.1
2018-Jan-18 02:14 310 0 gusting 3 11.1
2018-Jan-18 02:04 282 0 gusting 5 11.1
2018-Jan-18 01:54 201 0 gusting 3 11.1
2018-Jan-18 01:49 305 0 gusting 3 11.1
2018-Jan-18 01:44 303 0 gusting 3 11.1
2018-Jan-18 01:29 250 0 gusting 4 11.7
2018-Jan-18 01:19 285 0 gusting 3 11.7
2018-Jan-18 01:14 303 0 gusting 4 11.7
2018-Jan-18 01:09 177 0 gusting 5 11.7
2018-Jan-18 01:04 202 0 gusting 5 11.7
2018-Jan-18 00:59 234 0 gusting 4 11.7
2018-Jan-18 00:54 220 11.7
2018-Jan-18 00:49 258 11.7
2018-Jan-18 00:44 263 11.7
2018-Jan-18 00:39 214 11.7
2018-Jan-18 00:35 212 11.7
2018-Jan-18 00:29 243 11.7
2018-Jan-18 00:24 319 0 gusting 3 11.7
2018-Jan-18 00:19 334 0 gusting 3 12.2
2018-Jan-18 00:14 307 0 gusting 3 12.2
2018-Jan-18 00:09 295 0 gusting 4 12.2
2018-Jan-18 00:04 334 0 gusting 6 12.2
2018-Jan-17 23:59 347 0 gusting 6 12.2
2018-Jan-17 23:54 270 0 gusting 6 12.8
2018-Jan-17 23:49 198 0 gusting 5 13.3
2018-Jan-17 23:44 218 0 gusting 4 13.3
2018-Jan-17 23:39 265 0 gusting 3 13.3
2018-Jan-17 23:34 349 0 gusting 2 13.3
2018-Jan-17 23:29 010 0 gusting 3 13.3
2018-Jan-17 23:24 320 0 gusting 3 13.3
2018-Jan-17 23:19 269 13.9
2018-Jan-17 23:14 303 13.9
2018-Jan-17 23:09 306 13.3
2018-Jan-17 23:04 258 13.3
2018-Jan-17 22:59 239 13.3
2018-Jan-17 22:49 253 12.2
2018-Jan-17 22:44 269 11.7
2018-Jan-17 22:39 011 11.1
2018-Jan-17 22:34 356 11.1
2018-Jan-17 22:29 331 11.1
2018-Jan-17 22:19 136 11.1